Overview Statistics Trail Chart Weather Telemetry Raw packets
 

This is the latest recevied weather packets stored in our database for station/object YREN. If no packets are shown the sender has not sent any weather packets the latest 10 day(s).

<< 28 29 30 31 32 33 34 >>
Time Temp. Humidity Pressure Rain* Wind** Luminosity Snow
1787942104 4.44° C 94% 1031.1 hPa 0 mm - - -
1787941205 4.44° C 93% 1031 hPa 0 mm - - -
1787940304 4.44° C 93% 1031 hPa 0 mm - - -
1787939403 5.56° C 93% 1031 hPa 0 mm - - -
1787938504 5.56° C 93% 1031 hPa 0 mm - - -
1787937604 5.56° C 92% 1031.2 hPa 0 mm - - -
1787936704 5.56° C 92% 1031.2 hPa 0 mm - - -
1787935803 6.11° C 92% 1031.3 hPa 0 mm - - -
1787934903 6.11° C 92% 1031.3 hPa 0 mm - - -
1787934004 6.11° C 92% 1031.6 hPa 0 mm - - -
1787933104 6.11° C 92% 1031.6 hPa 0 mm - - -
1787932204 6.67° C 89% 1031.5 hPa 0 mm - - -
1787931304 6.67° C 89% 1031.5 hPa 0 mm - - -
1787930404 7.22° C 91% 1031.3 hPa 0 mm - - -
1787929504 7.22° C 91% 1031.3 hPa 0 mm - - -
1787928604 8.33° C 86% 1031.2 hPa 0 mm - - -
1787927704 8.89° C 84% 1031.4 hPa 0 mm - - -
1787926804 8.89° C 84% 1031.4 hPa 0 mm - - -
1787925913 8.89° C 84% 1031.4 hPa 0 mm - - -
1787925003 8.89° C 87% 1031.4 hPa 0 mm - - -
1787924104 8.89° C 87% 1031.4 hPa 0 mm - - -
1787923204 9.44° C 85% 1031.2 hPa 0 mm - - -
1787922306 9.44° C 85% 1031.2 hPa 0 mm - - -
1787921404 10° C 85% 1031.2 hPa 0 mm - - -
1787920504 10° C 85% 1031.2 hPa 0 mm - - -

* Rain latest hour (hover to see other rain measurements)
** Current wind speed in m/s (hover to see current wind gust speed)